Date String (YYYY-MM-DD hh:mm:ss) UTC,Instrument flags,absolute air pressure of the measurement (hPa),sample flow rate (lpm),inlet stack bypass flow (lpm),air temperature of the measurement (°C),ambient temperature measured by the external sensor (°C),aerosol sample conditioner tube jacket temperature (°C),OPC LED temperature (°C),internal box temperature (°C),relative humidity of the measurement (%),span deviation,mass concentration of particles derived from Lorenz-Mie calculation of OPC scattering (μg/m³),mass concentration of particles derived from Lorenz-Mie calculation of OPC scattering (μg/m³),mass concentration of particles derived from Lorenz-Mie calculation of OPC scattering (μg/m³)
DateTimeUTC,F1_M11,P_M11,Q1_M11,Q2_M11,T1_M11,T2_M11,T3_M11,T4_M11,T5_M11,U1_M11,ZSPAN_M11,X2_M11,X0_M11,X1_M11
2023-07-30 13:00:00,SystemResetWarning,0836.1,5.00,000.00,030.3,026.1,000.0,038.6,031.3,29.8,0000.0,0006.47,0017.66,0005.11
2023-07-30 13:01:00,SystemResetWarning,0836.1,5.01,000.00,030.2,026.0,000.0,038.6,031.0,30.3,0000.0,0006.44,0017.51,0005.08
2023-07-30 13:02:00,SystemResetWarning,0836.1,5.02,000.00,030.1,026.3,000.0,038.6,031.0,30.3,0000.0,0006.42,0018.30,0005.04
2023-07-30 13:03:00,SystemResetWarning,0836.1,4.99,000.00,030.1,026.6,000.0,038.6,031.0,31.2,0000.0,0006.37,0017.86,0005.00
2023-07-30 13:04:00,SystemResetWarning,0836.1,4.99,000.00,030.0,027.0,000.0,038.6,031.1,32.9,0000.0,0006.29,0017.71,0004.96
2023-07-30 13:05:00,SystemResetWarning,0836.2,5.01,000.00,030.0,027.3,000.0,038.6,031.2,32.6,0000.0,0006.22,0017.60,0004.92
2023-07-30 13:06:00,SystemResetWarning,0836.2,5.02,000.00,030.0,027.5,000.0,038.6,031.2,31.9,0000.0,0006.12,0018.07,0004.88
2023-07-30 13:07:00,SystemResetWarning,0836.2,4.99,000.00,030.0,027.7,000.0,038.6,031.2,30.9,0000.0,0006.07,0017.59,0004.85
2023-07-30 13:08:00,SystemResetWarning,0836.2,5.00,000.00,030.0,027.9,000.0,038.5,031.3,31.3,0000.0,0005.94,0016.28,0004.81
2023-07-30 13:09:00,SystemResetWarning,0836.2,5.00,000.00,030.0,028.1,000.0,038.5,031.3,31.7,0000.0,0005.92,0015.19,0004.79
2023-07-30 13:10:00,SystemResetWarning,0836.2,5.00,000.00,030.0,028.2,000.0,038.5,031.3,32.1,0000.0,0005.93,0014.86,0004.78
2023-07-30 13:11:00,SystemResetWarning,0836.2,5.00,000.00,030.0,028.3,000.0,038.5,031.4,32.3,0000.0,0005.91,0014.58,0004.77
2023-07-30 13:12:00,SystemResetWarning,0836.3,5.01,000.00,030.1,028.4,000.0,038.5,031.4,32.3,0000.0,0005.93,0014.31,0004.77
2023-07-30 13:13:00,SystemResetWarning,0836.3,5.00,000.00,030.1,028.4,000.0,038.5,031.4,32.1,0000.0,0005.90,0013.74,0004.76
2023-07-30 13:14:00,SystemResetWarning,0836.2,5.00,000.00,030.1,028.5,000.0,038.5,031.5,32.4,0000.0,0005.93,0013.73,0004.77
2023-07-30 13:15:00,SystemResetWarning,0836.3,5.00,000.00,030.1,028.5,000.0,038.5,031.5,32.8,0000.0,0005.95,0013.77,0004.79
2023-07-30 13:16:00,SystemResetWarning,0836.2,4.98,000.00,030.1,027.4,000.0,038.4,031.4,32.9,0000.0,0005.99,0013.88,0004.81
2023-07-30 13:17:00,SystemResetWarning,0836.2,5.01,000.00,030.0,025.9,000.0,038.3,031.1,33.1,0000.0,0006.01,0013.62,0004.84
2023-07-30 13:18:00,SystemResetWarning,0836.2,5.01,000.00,029.9,025.4,000.0,038.2,031.0,33.9,0000.0,0005.97,0013.88,0004.84
2023-07-30 13:19:00,SystemResetWarning,0836.2,5.01,000.00,029.8,025.6,000.0,038.2,030.7,34.7,0000.0,0005.99,0015.61,0004.84
2023-07-30 13:20:00,SystemResetWarning,0836.2,4.98,000.00,029.7,026.0,000.0,038.3,030.8,35.3,0000.0,0006.03,0016.04,0004.86
2023-07-30 13:21:00,SystemResetWarning,0836.2,5.02,000.00,029.9,026.4,000.0,038.3,030.9,35.4,0000.0,0006.09,0016.14,0004.88
2023-07-30 13:22:00,SystemResetWarning,0836.3,5.00,000.00,030.2,026.8,000.0,038.3,031.1,34.7,0000.0,0006.14,0015.86,0004.91
2023-07-30 13:23:00,SystemResetWarning,0836.3,4.98,000.00,030.4,027.1,000.0,038.3,031.3,34.0,0000.0,0006.21,0016.57,0004.93
2023-07-30 13:24:00,SystemResetWarning,0836.3,5.01,000.00,030.6,027.4,000.0,038.3,031.3,33.4,0000.0,0006.23,0017.44,0004.93
2023-07-30 13:25:00,SystemResetWarning,0836.4,5.01,000.00,030.7,027.6,000.0,038.4,031.3,33.2,0000.0,0006.25,0017.26,0004.93
2023-07-30 13:26:00,SystemResetWarning,0836.4,4.99,000.00,030.7,027.8,000.0,038.5,031.3,32.5,0000.0,0006.24,0017.10,0004.91
2023-07-30 13:27:00,SystemResetWarning,0836.3,4.98,000.00,030.8,028.0,000.0,038.5,031.4,32.7,0000.0,0006.25,0016.66,0004.91
2023-07-30 13:28:00,SystemResetWarning,0836.3,5.00,000.00,030.8,028.1,000.0,038.6,031.4,32.5,0000.0,0006.25,0018.28,0004.90
2023-07-30 13:29:00,SystemResetWarning,0836.3,5.01,000.00,030.8,028.2,000.0,038.7,031.5,32.9,0000.0,0006.33,0018.15,0004.90
2023-07-30 13:30:00,SystemResetWarning,0836.4,5.01,000.00,030.8,028.3,000.0,038.7,031.5,32.9,0000.0,0006.35,0016.79,0004.90
2023-07-30 13:31:00,SystemResetWarning,0836.4,5.01,000.00,030.9,028.4,000.0,038.8,031.5,33.3,0000.0,0006.34,0016.09,0004.88
2023-07-30 13:32:00,SystemResetWarning,0836.4,4.99,000.00,030.9,028.5,000.0,038.8,031.6,33.7,0000.0,0006.32,0015.86,0004.88
2023-07-30 13:33:00,SystemResetWarning,0836.4,4.99,000.00,030.9,028.2,000.0,038.8,031.6,34.0,0000.0,0006.26,0016.07,0004.87
2023-07-30 13:34:00,SystemResetWarning,0836.3,5.00,000.00,030.9,026.7,000.0,038.7,031.4,34.1,0000.0,0006.21,0016.83,0004.88
2023-07-30 13:35:00,SystemResetWarning,0836.3,5.00,000.00,030.8,025.6,000.0,038.6,031.3,33.3,0000.0,0006.21,0016.35,0004.88
2023-07-30 13:36:00,SystemResetWarning,0836.3,5.00,000.00,030.7,025.5,000.0,038.6,031.0,33.5,0000.0,0006.20,0017.39,0004.89
2023-07-30 13:37:00,SystemResetWarning,0836.2,5.01,000.00,030.6,025.8,000.0,038.7,030.9,34.1,0000.0,0006.22,0017.56,0004.90
2023-07-30 13:38:00,SystemResetWarning,0836.3,5.01,000.00,030.5,026.2,000.0,038.7,030.9,34.5,0000.0,0006.26,0018.07,0004.91
2023-07-30 13:39:00,SystemResetWarning,0836.3,5.00,000.00,030.4,026.6,000.0,038.7,031.0,34.2,0000.0,0006.26,0016.69,0004.93
2023-07-30 13:40:00,SystemResetWarning,0836.3,5.00,000.00,030.4,026.9,000.0,038.7,031.1,33.7,0000.0,0006.24,0017.55,0004.90
2023-07-30 13:41:00,SystemResetWarning,0836.3,5.00,000.00,030.4,027.3,000.0,038.7,031.1,34.0,0000.0,0006.28,0018.28,0004.90
2023-07-30 13:42:00,SystemResetWarning,0836.3,5.00,000.00,030.4,027.5,000.0,038.7,031.2,34.4,0000.0,0006.32,0018.33,0004.92
2023-07-30 13:43:00,SystemResetWarning,0836.4,5.00,000.00,030.4,027.7,000.0,038.7,031.3,34.2,0000.0,0006.34,0018.91,0004.93
2023-07-30 13:44:00,SystemResetWarning,0836.3,5.01,000.00,030.4,027.9,000.0,038.7,031.3,34.2,0000.0,0006.37,0018.83,0004.93
2023-07-30 13:45:00,SystemResetWarning,0836.3,5.01,000.00,030.4,028.1,000.0,038.7,031.3,34.5,0000.0,0006.37,0017.80,0004.91
2023-07-30 13:46:00,SystemResetWarning,0836.4,5.00,000.00,030.4,028.2,000.0,038.7,031.4,34.4,0000.0,0006.34,0017.69,0004.90
2023-07-30 13:47:00,SystemResetWarning,0836.4,5.00,000.00,030.4,028.3,000.0,038.7,031.4,34.0,0000.0,0006.35,0016.90,0004.90
2023-07-30 13:48:00,SystemResetWarning,0836.4,5.00,000.00,030.4,028.4,000.0,038.7,031.5,33.7,0000.0,0006.36,0016.08,0004.90
2023-07-30 13:49:00,SystemResetWarning,0836.4,5.00,000.00,030.4,028.5,000.0,038.7,031.5,34.0,0000.0,0006.35,0016.07,0004.90
2023-07-30 13:50:00,SystemResetWarning,0836.4,4.99,000.00,030.4,027.6,000.0,038.6,031.4,33.6,0000.0,0006.33,0015.66,0004.90
2023-07-30 13:51:00,SystemResetWarning,0836.4,5.01,000.00,030.3,026.1,000.0,038.5,031.2,33.9,0000.0,0006.34,0015.76,0004.90
2023-07-30 13:52:00,SystemResetWarning,0836.3,5.01,000.00,030.2,025.6,000.0,038.4,031.0,34.4,0000.0,0006.33,0014.38,0004.93
2023-07-30 13:53:00,SystemResetWarning,0836.2,4.99,000.00,030.1,025.7,000.0,038.4,030.9,35.4,0000.0,0006.30,0014.54,0004.93
2023-07-30 13:54:00,SystemResetWarning,0836.3,5.02,000.00,030.2,026.1,000.0,038.4,031.0,34.8,0000.0,0006.28,0014.57,0004.92
2023-07-30 13:55:00,SystemResetWarning,0836.3,4.96,000.00,030.3,026.5,000.0,038.4,031.1,34.8,0000.0,0006.29,0014.93,0004.91
2023-07-30 13:56:00,SystemResetWarning,0836.4,5.05,000.00,030.5,026.8,000.0,038.5,031.2,34.9,0000.0,0006.32,0015.70,0004.91
2023-07-30 13:57:00,SystemResetWarning,0836.4,4.96,000.00,030.6,027.2,000.0,038.5,031.3,34.0,0000.0,0006.37,0016.41,0004.92
2023-07-30 13:58:00,SystemResetWarning,0836.3,5.02,000.00,030.7,027.4,000.0,038.5,031.3,34.0,0000.0,0006.35,0016.03,0004.92
2023-07-30 13:59:00,SystemResetWarning,0836.4,4.99,000.00,030.8,027.7,000.0,038.6,031.3,34.2,0000.0,0006.36,0016.27,0004.91
